When you browse on this site, cookies collect data to enhance your experience and personalize the content and advertising you see.
Visit our Privacy Policy to learn more. By continuing to use the site, you agree to this use of cookies and data.
  • In Sweden
  • List of Countries
  • For 7 days
  • Water Temperature
  • Weather Map
  • Weather Widgets
  • user-avatar
    Login

    Hourly Weather Tooele

    Today, 22 August, Thursday

    Time Temperature Precipitation Wind Pressure Humidity
    00:00 +22°C° 0 mm 3 mps 617 mmHg 16%
    01:00 +22°C° 0 mm 3 mps 616 mmHg 15%
    02:00 +22°C° 0 mm 4 mps 616 mmHg 14%
    03:00 +22°C° 0 mm 4 mps 616 mmHg 14%
    04:00 +22°C° 0 mm 4 mps 617 mmHg 13%
    05:00 +22°C° 0 mm 3 mps 617 mmHg 13%
    06:00 +22°C° 0 mm 3 mps 617 mmHg 14%
    07:00 +24°C° 0 mm 3 mps 617 mmHg 14%
    08:00 +24°C° 0 mm 2 mps 617 mmHg 15%
    09:00 +26°C° 0 mm 3 mps 618 mmHg 13%
    10:00 +29°C° 0 mm 4 mps 618 mmHg 12%
    11:00 +32°C° 0 mm 5 mps 619 mmHg 10%
    12:00 +32°C° 0 mm 4 mps 619 mmHg 12%
    13:00 +32°C° 0 mm 4 mps 618 mmHg 13%
    14:00 +32°C° 0 mm 4 mps 618 mmHg 15%
    15:00 +30°C° 0 mm 4 mps 617 mmHg 16%
    16:00 +30°C° 0 mm 4 mps 617 mmHg 18%
    17:00 +29°C° 0 mm 4 mps 616 mmHg 20%
    18:00 +27°C° 0 mm 3 mps 616 mmHg 24%
    19:00 +24°C° 0 mm 2 mps 616 mmHg 27%
    20:00 +21°C° 0 mm 2 mps 616 mmHg 31%
    21:00 +20°C° 0 mm 2 mps 616 mmHg 37%
    22:00 +19°C° 0 mm 2 mps 616 mmHg 42%
    23:00 +19°C° 0 mm 3 mps 616 mmHg 48%

    Tomorrow, 23 August, Friday

    Time Temperature Precipitation Wind Pressure Humidity
    00:00 +18°C° 0 mm 2 mps 616 mmHg 48%
    01:00 +17°C° 0 mm 2 mps 616 mmHg 49%
    02:00 +16°C° 0 mm 1 mps 616 mmHg 49%
    03:00 +16°C° 0 mm 1 mps 616 mmHg 50%
    04:00 +15°C° 0 mm 1 mps 616 mmHg 51%
    05:00 +15°C° 0 mm 1 mps 616 mmHg 52%
    06:00 +18°C° 0 mm 1 mps 617 mmHg 45%
    07:00 +19°C° 0 mm 1 mps 618 mmHg 39%
    08:00 +19°C° 0 mm 0 mps 619 mmHg 33%
    09:00 +23°C° 0 mm 1 mps 619 mmHg 30%
    10:00 +24°C° 0 mm 1 mps 620 mmHg 28%
    11:00 +25°C° 0 mm 2 mps 620 mmHg 25%
    12:00 +27°C° 0 mm 2 mps 620 mmHg 24%
    13:00 +28°C° 0 mm 3 mps 620 mmHg 22%
    14:00 +29°C° 0 mm 3 mps 620 mmHg 21%
    15:00 +28°C° 0 mm 3 mps 620 mmHg 21%
    16:00 +28°C° 0 mm 3 mps 619 mmHg 22%
    17:00 +27°C° 0 mm 3 mps 619 mmHg 22%
    18:00 +25°C° 0 mm 3 mps 618 mmHg 26%
    19:00 +23°C° 0 mm 2 mps 618 mmHg 31%
    20:00 +20°C° 0 mm 1 mps 617 mmHg 35%
    21:00 +20°C° 0 mm 1 mps 618 mmHg 34%
    22:00 +20°C° 0 mm 1 mps 618 mmHg 34%
    23:00 +19°C° 0 mm 1 mps 618 mmHg 33%

    Day after tomorrow, 24 August, Saturday

    Time Temperature Precipitation Wind Pressure Humidity
    00:00 +19°C° 0 mm 1 mps 618 mmHg 33%
    01:00 +18°C° 0 mm 2 mps 618 mmHg 32%
    02:00 +18°C° 0 mm 2 mps 618 mmHg 32%
    03:00 +18°C° 0 mm 2 mps 618 mmHg 32%
    04:00 +18°C° 0 mm 2 mps 618 mmHg 33%
    05:00 +18°C° 0 mm 3 mps 618 mmHg 33%
    06:00 +19°C° 0 mm 3 mps 619 mmHg 31%
    07:00 +21°C° 0 mm 3 mps 619 mmHg 29%
    08:00 +22°C° 0 mm 3 mps 620 mmHg 27%
    09:00 +25°C° 0 mm 2 mps 621 mmHg 24%
    10:00 +27°C° 0 mm 2 mps 621 mmHg 21%
    11:00 +29°C° 0 mm 2 mps 622 mmHg 17%
    12:00 +30°C° 0 mm 3 mps 622 mmHg 16%
    13:00 +31°C° 0 mm 3 mps 622 mmHg 15%
    14:00 +34°C° 0 mm 4 mps 621 mmHg 13%
    15:00 +33°C° 0 mm 3 mps 621 mmHg 13%
    16:00 +33°C° 0 mm 3 mps 621 mmHg 13%
    17:00 +33°C° 0 mm 3 mps 620 mmHg 13%
    18:00 +30°C° 0 mm 3 mps 620 mmHg 16%
    19:00 +27°C° 0 mm 3 mps 619 mmHg 20%
    20:00 +25°C° 0 mm 3 mps 619 mmHg 23%
    21:00 +25°C° 0 mm 3 mps 619 mmHg 23%
    22:00 +24°C° 0 mm 2 mps 619 mmHg 23%
    23:00 +23°C° 0 mm 2 mps 619 mmHg 23%

    25 August, Sunday

    Time Temperature Precipitation Wind Pressure Humidity
    00:00 +23°C° 0 mm 2 mps 619 mmHg 24%
    01:00 +22°C° 0 mm 3 mps 619 mmHg 24%
    02:00 +21°C° 0 mm 3 mps 619 mmHg 25%
    03:00 +20°C° 0 mm 3 mps 619 mmHg 26%
    04:00 +20°C° 0 mm 3 mps 619 mmHg 28%
    05:00 +19°C° 0 mm 3 mps 619 mmHg 29%
    06:00 +20°C° 0 mm 2 mps 620 mmHg 28%
    07:00 +23°C° 0 mm 2 mps 620 mmHg 26%
    08:00 +24°C° 0 mm 1 mps 621 mmHg 25%
    09:00 +26°C° 0 mm 2 mps 621 mmHg 22%
    10:00 +27°C° 0 mm 2 mps 622 mmHg 20%
    11:00 +29°C° 0 mm 3 mps 622 mmHg 18%
    12:00 +30°C° 0 mm 3 mps 622 mmHg 17%
    13:00 +30°C° 0 mm 3 mps 622 mmHg 16%
    14:00 +31°C° 0 mm 3 mps 621 mmHg 15%
    15:00 +32°C° 0 mm 4 mps 621 mmHg 15%
    16:00 +32°C° 0 mm 4 mps 621 mmHg 14%
    17:00 +33°C° 0 mm 4 mps 621 mmHg 14%
    18:00 +29°C° 0 mm 3 mps 620 mmHg 17%
    19:00 +27°C° 0 mm 3 mps 619 mmHg 20%
    20:00 +24°C° 0 mm 2 mps 619 mmHg 23%
    21:00 +23°C° 0 mm 2 mps 619 mmHg 25%
    22:00 +21°C° 0 mm 2 mps 619 mmHg 28%
    23:00 +20°C° 0 mm 3 mps 619 mmHg 31%

    26 August, Monday

    Time Temperature Precipitation Wind Pressure Humidity
    00:00 +19°C° 0 mm 2 mps 619 mmHg 31%
    01:00 +19°C° 0 mm 2 mps 619 mmHg 32%
    02:00 +19°C° 0 mm 1 mps 619 mmHg 33%
    03:00 +18°C° 0 mm 1 mps 619 mmHg 33%
    04:00 +18°C° 0 mm 1 mps 619 mmHg 34%
    05:00 +16°C° 0 mm 1 mps 619 mmHg 35%
    06:00 +18°C° 0 mm 2 mps 620 mmHg 31%
    07:00 +20°C° 0 mm 2 mps 621 mmHg 27%
    08:00 +21°C° 0 mm 2 mps 622 mmHg 24%
    09:00 +24°C° 0 mm 2 mps 622 mmHg 22%
    10:00 +25°C° 0 mm 3 mps 622 mmHg 20%
    11:00 +26°C° 0 mm 3 mps 623 mmHg 18%
    12:00 +27°C° 0 mm 4 mps 623 mmHg 16%
    13:00 +27°C° 0 mm 4 mps 622 mmHg 15%
    14:00 +28°C° 0 mm 4 mps 622 mmHg 13%
    15:00 +27°C° 0 mm 4 mps 622 mmHg 14%
    16:00 +27°C° 0 mm 4 mps 622 mmHg 14%
    17:00 +26°C° 0 mm 4 mps 621 mmHg 14%
    18:00 +24°C° 0 mm 3 mps 621 mmHg 18%
    19:00 +20°C° 0 mm 2 mps 620 mmHg 21%
    20:00 +18°C° 0 mm 1 mps 619 mmHg 25%
    21:00 +18°C° 0 mm 1 mps 620 mmHg 26%
    22:00 +16°C° 0 mm 1 mps 620 mmHg 26%
    23:00 +15°C° 0 mm 0 mps 620 mmHg 27%

    27 August, Tuesday

    Time Temperature Precipitation Wind Pressure Humidity
    00:00 +14°C° 0 mm 0 mps 620 mmHg 28%
    01:00 +13°C° 0 mm 0 mps 619 mmHg 29%
    02:00 +13°C° 0 mm 0 mps 619 mmHg 31%
    03:00 +13°C° 0 mm 0 mps 619 mmHg 31%
    04:00 +12°C° 0 mm 0 mps 619 mmHg 31%
    05:00 +12°C° 0 mm 0 mps 619 mmHg 32%
    06:00 +16°C° 0 mm 1 mps 620 mmHg 27%
    07:00 +19°C° 0 mm 1 mps 621 mmHg 23%
    08:00 +22°C° 0 mm 1 mps 622 mmHg 18%
    09:00 +24°C° 0 mm 1 mps 623 mmHg 16%
    10:00 +26°C° 0 mm 1 mps 623 mmHg 14%
    11:00 +28°C° 0 mm 1 mps 623 mmHg 12%
    12:00 +29°C° 0 mm 2 mps 623 mmHg 12%
    13:00 +30°C° 0 mm 2 mps 623 mmHg 11%
    14:00 +31°C° 0 mm 3 mps 623 mmHg 10%
    15:00 +30°C° 0 mm 3 mps 623 mmHg 11%
    16:00 +30°C° 0 mm 3 mps 622 mmHg 11%
    17:00 +30°C° 0 mm 2 mps 622 mmHg 11%
    18:00 +27°C° 0 mm 2 mps 621 mmHg 16%
    19:00 +23°C° 0 mm 1 mps 620 mmHg 20%
    20:00 +20°C° 0 mm 1 mps 619 mmHg 24%
    21:00 +20°C° 0 mm 1 mps 619 mmHg 25%
    22:00 +19°C° 0 mm 1 mps 620 mmHg 26%
    23:00 +16°C° 0 mm 0 mps 620 mmHg 28%
    Show more